This is the latest recevied weather packets stored in our database for station/object W2SRH. If no packets are shown the sender has not sent any weather packets the latest 10 day(s).
| Time | Temp. | Humidity | Pressure | Rain* | Wind** | Luminosity | Snow |
|---|---|---|---|---|---|---|---|
| 1788575149 | 25° C | 73% | 1002.9 hPa | 0 mm | 0 m/s | - | - |
| 1788575135 | 25.56° C | 72% | 1002.9 hPa | 0 mm | 0 m/s | - | - |
| 1788574746 | 25° C | 73% | 1003 hPa | 0 mm | 0 m/s | - | - |
| 1788574149 | 25° C | 73% | 1002.9 hPa | 0 mm | 0 m/s | - | - |
| 1788573543 | 25.56° C | 72% | 1002.9 hPa | 0 mm | 0 m/s | - | - |
| 1788573228 | 25.56° C | 71% | 1003.1 hPa | 0 mm | 0 m/s | - | - |
| 1788573220 | 26.11° C | 70% | 1003 hPa | 0 mm | 0 m/s | - | - |
| 1788572945 | 25.56° C | 72% | 1003 hPa | 0 mm | 0 m/s | - | - |
| 1788572344 | 25.56° C | 71% | 1003.1 hPa | 0 mm | 0 m/s | - | - |
| 1788571744 | 26.11° C | 70% | 1003 hPa | 0 mm | 0 m/s | - | - |
| 1788571296 | 26.67° C | 69% | 1002.9 hPa | 0 mm | 0.45 m/s, 342° | - | - |
| 1788571143 | 26.11° C | 69% | 1003.1 hPa | 0 mm | 0 m/s | - | - |
| 1788570545 | 26.11° C | 69% | 1003 hPa | 0 mm | 0 m/s | - | - |
| 1788569943 | 26.67° C | 69% | 1002.9 hPa | 0 mm | 0.45 m/s, 342° | - | - |
| 1788569377 | 26.67° C | 70% | 1002.6 hPa | 0 mm | 0 m/s | - | - |
| 1788569344 | 26.67° C | 69% | 1002.9 hPa | 0 mm | 0 m/s | - | - |
| 1788568743 | 26.67° C | 69% | 1002.8 hPa | 0 mm | 0 m/s | - | - |
| 1788568144 | 26.67° C | 70% | 1002.6 hPa | 0 mm | 0 m/s | - | - |
| 1788567602 | 26.67° C | 69% | 1002.5 hPa | 0 mm | 0 m/s | - | - |
| 1788567550 | 26.67° C | 69% | 1002.5 hPa | 0 mm | 0 m/s | - | - |
| 1788567463 | 27.22° C | 68% | 1002.4 hPa | 0 mm | 0 m/s | - | - |
| 1788567451 | 27.22° C | 68% | 1002.6 hPa | 0 mm | 0 m/s | - | - |
| 1788566944 | 26.67° C | 69% | 1002.5 hPa | 0 mm | 0 m/s | - | - |
| 1788566344 | 27.22° C | 68% | 1002.4 hPa | 0 mm | 0 m/s | - | - |
| 1788565744 | 27.22° C | 68% | 1002.6 hPa | 0 mm | 0 m/s | - | - |
* Rain latest hour (hover to see other rain measurements)
** Current wind speed in m/s (hover to see current wind gust speed)